When you browse on this site, cookies collect data to enhance your experience and personalize the content and advertising you see.
Visit our Privacy Policy to learn more. By continuing to use the site, you agree to this use of cookies and data.
  • In Latvia
  • List of Countries
  • For 7 days
  • Water Temperature
  • Satellite Maps
  • Weather Map
  • Weather Widgets
  • user-avatar
    Login

    Hourly Weather Bismarck

    Today, 21 July, Sunday

    Time Temperature Precipitation Wind Pressure Humidity
    00:00 +18°C° 0 mm 1 mps 718 mmHg 66%
    01:00 +16°C° 0 mm 1 mps 718 mmHg 68%
    02:00 +16°C° 0 mm 1 mps 718 mmHg 69%
    03:00 +16°C° 0 mm 1 mps 719 mmHg 71%
    04:00 +16°C° 0 mm 1 mps 719 mmHg 73%
    05:00 +15°C° 0 mm 1 mps 719 mmHg 75%
    06:00 +18°C° 0 mm 1 mps 720 mmHg 69%
    07:00 +20°C° 0 mm 2 mps 721 mmHg 64%
    08:00 +22°C° 0 mm 3 mps 722 mmHg 58%
    09:00 +22°C° 0.3 mm 3 mps 722 mmHg 58%
    10:00 +22°C° 0.3 mm 4 mps 722 mmHg 59%
    11:00 +23°C° 0.3 mm 5 mps 722 mmHg 60%
    12:00 +23°C° 0.5 mm 4 mps 722 mmHg 59%
    13:00 +24°C° 0.5 mm 3 mps 722 mmHg 59%
    14:00 +24°C° 0.5 mm 2 mps 723 mmHg 58%
    15:00 +23°C° 0.5 mm 2 mps 723 mmHg 60%
    16:00 +23°C° 0.5 mm 2 mps 723 mmHg 61%
    17:00 +23°C° 0.5 mm 2 mps 723 mmHg 63%
    18:00 +21°C° 0.1 mm 2 mps 722 mmHg 68%
    19:00 +19°C° 0.1 mm 2 mps 722 mmHg 73%
    20:00 +19°C° 0.1 mm 1 mps 722 mmHg 79%
    21:00 +18°C° 0 mm 1 mps 722 mmHg 82%
    22:00 +18°C° 0 mm 1 mps 722 mmHg 84%
    23:00 +16°C° 0 mm 1 mps 723 mmHg 87%

    Tomorrow, 22 July, Monday

    Time Temperature Precipitation Wind Pressure Humidity
    00:00 +16°C° 0 mm 1 mps 723 mmHg 88%
    01:00 +14°C° 0 mm 0 mps 723 mmHg 89%
    02:00 +14°C° 0 mm 0 mps 723 mmHg 90%
    03:00 +14°C° 0 mm 0 mps 723 mmHg 90%
    04:00 +14°C° 0 mm 0 mps 724 mmHg 90%
    05:00 +14°C° 0 mm 0 mps 724 mmHg 90%
    06:00 +16°C° 0 mm 0 mps 724 mmHg 83%
    07:00 +19°C° 0 mm 0 mps 724 mmHg 75%
    08:00 +21°C° 0 mm 0 mps 725 mmHg 68%
    09:00 +22°C° 0 mm 0 mps 725 mmHg 62%
    10:00 +24°C° 0 mm 0 mps 725 mmHg 55%
    11:00 +26°C° 0 mm 0 mps 725 mmHg 49%
    12:00 +28°C° 0 mm 1 mps 725 mmHg 46%
    13:00 +29°C° 0 mm 1 mps 724 mmHg 43%
    14:00 +29°C° 0 mm 1 mps 724 mmHg 40%
    15:00 +29°C° 0 mm 2 mps 724 mmHg 41%
    16:00 +28°C° 0 mm 2 mps 724 mmHg 43%
    17:00 +28°C° 0 mm 2 mps 723 mmHg 44%
    18:00 +26°C° 0 mm 2 mps 723 mmHg 52%
    19:00 +22°C° 0 mm 3 mps 723 mmHg 60%
    20:00 +20°C° 0 mm 3 mps 723 mmHg 68%
    21:00 +19°C° 0 mm 3 mps 723 mmHg 71%
    22:00 +18°C° 0 mm 3 mps 723 mmHg 74%
    23:00 +17°C° 0 mm 2 mps 723 mmHg 77%

    Day after tomorrow, 23 July, Tuesday

    Time Temperature Precipitation Wind Pressure Humidity
    00:00 +17°C° 0 mm 2 mps 723 mmHg 80%
    01:00 +17°C° 0 mm 2 mps 723 mmHg 83%
    02:00 +16°C° 0 mm 2 mps 723 mmHg 86%
    03:00 +16°C° 0 mm 2 mps 723 mmHg 87%
    04:00 +16°C° 0 mm 2 mps 723 mmHg 88%
    05:00 +16°C° 0 mm 2 mps 722 mmHg 89%
    06:00 +18°C° 0 mm 2 mps 723 mmHg 80%
    07:00 +21°C° 0 mm 3 mps 723 mmHg 72%
    08:00 +24°C° 0 mm 3 mps 723 mmHg 63%
    09:00 +25°C° 0 mm 4 mps 723 mmHg 57%
    10:00 +27°C° 0 mm 4 mps 722 mmHg 51%
    11:00 +28°C° 0 mm 5 mps 722 mmHg 44%
    12:00 +29°C° 0 mm 5 mps 722 mmHg 44%
    13:00 +29°C° 0 mm 5 mps 721 mmHg 44%
    14:00 +30°C° 0 mm 5 mps 721 mmHg 43%
    15:00 +30°C° 0 mm 5 mps 721 mmHg 45%
    16:00 +30°C° 0 mm 4 mps 720 mmHg 46%
    17:00 +30°C° 0 mm 4 mps 720 mmHg 47%
    18:00 +28°C° 0 mm 4 mps 720 mmHg 55%
    19:00 +25°C° 0 mm 4 mps 719 mmHg 62%
    20:00 +22°C° 0 mm 4 mps 719 mmHg 70%
    21:00 +22°C° 0 mm 4 mps 719 mmHg 72%
    22:00 +21°C° 0 mm 4 mps 719 mmHg 73%
    23:00 +20°C° 0 mm 4 mps 719 mmHg 75%

    24 July, Wednesday

    Time Temperature Precipitation Wind Pressure Humidity
    00:00 +20°C° 0 mm 4 mps 718 mmHg 74%
    01:00 +19°C° 0 mm 4 mps 718 mmHg 74%
    02:00 +19°C° 0 mm 4 mps 717 mmHg 74%
    03:00 +19°C° 0 mm 4 mps 717 mmHg 75%
    04:00 +19°C° 0 mm 3 mps 717 mmHg 77%
    05:00 +18°C° 0 mm 3 mps 716 mmHg 79%
    06:00 +20°C° 0 mm 4 mps 716 mmHg 73%
    07:00 +22°C° 0 mm 5 mps 716 mmHg 68%
    08:00 +23°C° 0 mm 5 mps 716 mmHg 63%
    09:00 +26°C° 0 mm 6 mps 716 mmHg 60%
    10:00 +27°C° 0 mm 6 mps 715 mmHg 57%
    11:00 +28°C° 0 mm 7 mps 715 mmHg 54%
    12:00 +29°C° 0 mm 7 mps 715 mmHg 52%
    13:00 +29°C° 0 mm 7 mps 714 mmHg 50%
    14:00 +30°C° 0 mm 7 mps 714 mmHg 47%
    15:00 +30°C° 0 mm 6 mps 713 mmHg 49%
    16:00 +30°C° 0 mm 5 mps 713 mmHg 50%
    17:00 +30°C° 0 mm 5 mps 713 mmHg 51%
    18:00 +28°C° 0.4 mm 4 mps 712 mmHg 60%
    19:00 +26°C° 0.4 mm 4 mps 712 mmHg 68%
    20:00 +23°C° 0.4 mm 4 mps 712 mmHg 77%
    21:00 +23°C° 0.4 mm 4 mps 711 mmHg 80%
    22:00 +22°C° 0.4 mm 4 mps 711 mmHg 83%
    23:00 +21°C° 0.4 mm 3 mps 711 mmHg 87%

    25 July, Thursday

    Time Temperature Precipitation Wind Pressure Humidity
    00:00 +21°C° 0 mm 3 mps 711 mmHg 88%
    01:00 +21°C° 0 mm 2 mps 710 mmHg 88%
    02:00 +20°C° 0 mm 2 mps 710 mmHg 89%
    03:00 +21°C° 0 mm 2 mps 710 mmHg 88%
    04:00 +21°C° 0 mm 2 mps 710 mmHg 86%
    05:00 +21°C° 0 mm 2 mps 711 mmHg 85%
    06:00 +23°C° 0 mm 2 mps 711 mmHg 75%
    07:00 +25°C° 0 mm 3 mps 712 mmHg 65%
    08:00 +27°C° 0 mm 3 mps 712 mmHg 55%
    09:00 +28°C° 0.4 mm 3 mps 712 mmHg 48%
    10:00 +29°C° 0.4 mm 3 mps 712 mmHg 42%
    11:00 +30°C° 0.4 mm 3 mps 713 mmHg 35%
    12:00 +31°C° 0.3 mm 3 mps 713 mmHg 31%
    13:00 +33°C° 0.3 mm 3 mps 713 mmHg 27%
    14:00 +34°C° 0.3 mm 3 mps 713 mmHg 23%
    15:00 +34°C° 0 mm 3 mps 712 mmHg 25%
    16:00 +33°C° 0 mm 3 mps 712 mmHg 28%
    17:00 +33°C° 0 mm 3 mps 712 mmHg 31%
    18:00 +29°C° 0 mm 2 mps 711 mmHg 33%
    19:00 +27°C° 0 mm 2 mps 711 mmHg 35%
    20:00 +24°C° 0 mm 2 mps 711 mmHg 37%
    21:00 +24°C° 0 mm 2 mps 711 mmHg 39%
    22:00 +22°C° 0 mm 3 mps 710 mmHg 40%
    23:00 +22°C° 0 mm 3 mps 710 mmHg 41%

    26 July, Friday

    Time Temperature Precipitation Wind Pressure Humidity
    00:00 +21°C° 0 mm 4 mps 711 mmHg 40%
    01:00 +21°C° 0 mm 4 mps 711 mmHg 38%
    02:00 +21°C° 0 mm 5 mps 711 mmHg 36%
    03:00 +20°C° 0 mm 5 mps 711 mmHg 40%
    04:00 +19°C° 0 mm 5 mps 712 mmHg 44%
    05:00 +17°C° 0 mm 5 mps 712 mmHg 48%
    06:00 +19°C° 0 mm 6 mps 713 mmHg 51%
    07:00 +21°C° 0 mm 7 mps 714 mmHg 55%
    08:00 +22°C° 0 mm 9 mps 715 mmHg 58%
    09:00 +23°C° 0 mm 9 mps 715 mmHg 54%
    10:00 +24°C° 0 mm 8 mps 716 mmHg 50%
    11:00 +26°C° 0 mm 8 mps 716 mmHg 46%
    12:00 +27°C° 0 mm 7 mps 716 mmHg 45%
    13:00 +28°C° 0 mm 7 mps 717 mmHg 44%
    14:00 +28°C° 0 mm 6 mps 717 mmHg 42%
    15:00 +28°C° 0 mm 5 mps 717 mmHg 44%
    16:00 +28°C° 0 mm 5 mps 717 mmHg 45%
    17:00 +27°C° 0 mm 4 mps 717 mmHg 46%
    18:00 +25°C° 0 mm 3 mps 717 mmHg 52%
    19:00 +23°C° 0 mm 2 mps 718 mmHg 59%
    20:00 +21°C° 0 mm 1 mps 718 mmHg 65%
    21:00 +21°C° 0 mm 1 mps 718 mmHg 68%
    22:00 +20°C° 0 mm 1 mps 718 mmHg 70%
    23:00 +19°C° 0 mm 1 mps 718 mmHg 73%
    Show more